カタログに戻る

STARLINK-31974

運用中通信VLEO
NORAD 59885·PAYLOAD·🇺🇸 United States

打ち上げ May 28, 2024 から Cape Canaveral Space Force Station

Loading…

次のパス (今後24時間)

TLE

最新Source: CelesTrak SupGP

元期: Sep 14, 2026, 22:37 UTC

1 59885C 24100A   26257.94284722 -.00037024  00000+0 -13412-2 0  2579
2 59885  42.9994 136.5996 0001302 267.7886 346.2179 15.27591499    18

AllMySatでSTARLINK-31974をリアルタイム追跡

Download on the App Store